Theta_e
309 313 317 322 326 330 333 333 332 332 333 336 338 339 339 354 364 372 353 355 354 356 353 344 342 345 351 350 344 339 335 333 331 331 333 333 335 336 334 337 337 337 338 338 338 337 336 336 331
317 319 320 321 326 331 334 333 333 334 335 337 337 337 338 360 356 356 355 356 355 356 350 345 342 344 350 350 345 339 337 334 331 332 334 333 337 340 342 342 340 337 337 338 336 331 329 331 326
315 323 319 318 322 330 333 334 335 335 336 335 335 335 343 358 356 359 354 357 356 356 353 346 342 342 348 350 347 341 341 333 331 332 334 332 339 343 349 344 342 338 331 331 331 330 329 327 326
316 319 318 317 318 323 328 333 335 336 335 334 334 335 345 345 355 359 354 357 356 355 354 344 341 342 344 349 349 343 343 334 332 332 334 332 337 345 347 346 340 332 332 338 337 334 330 328 329
317 318 316 316 318 321 324 328 332 334 337 334 333 333 350 347 352 357 355 357 354 352 357 343 340 342 343 347 350 346 344 334 333 333 334 332 335 342 341 344 339 333 336 339 337 335 332 333 337
319 318 317 318 318 320 322 325 329 330 335 336 335 333 350 346 353 355 354 355 352 351 355 343 341 343 345 346 349 346 344 334 334 336 334 332 332 336 339 339 339 336 330 336 335 336 336 334 340
321 318 318 318 319 321 322 324 325 327 333 335 335 333 345 347 354 354 354 353 350 353 351 349 349 346 347 348 348 346 343 336 338 338 336 332 331 334 339 337 333 331 329 327 332 333 334 338 340
322 321 319 320 320 321 323 324 324 324 325 333 334 334 340 352 353 354 354 352 349 350 349 349 352 352 349 349 347 346 344 340 343 341 338 333 330 335 336 335 333 330 327 326 326 326 329 332 333
322 321 321 320 321 321 324 324 325 325 325 327 329 331 347 347 351 353 354 351 349 348 347 345 347 349 350 353 348 346 345 345 345 343 338 334 336 338 341 336 339 333 332 331 328 326 325 325 325
324 323 320 321 322 322 323 324 324 322 322 323 324 326 343 345 348 356 355 352 350 348 347 344 343 343 343 346 347 347 348 347 345 344 339 340 340 341 345 343 342 342 334 335 334 329 326 325 326
324 324 321 320 322 323 323 323 324 322 321 321 321 323 336 343 345 350 354 353 351 349 347 344 342 341 342 343 340 343 343 343 342 342 341 339 337 341 340 343 342 340 339 334 336 335 331 327 331
320 323 322 322 322 322 323 324 323 322 322 322 322 324 330 336 345 347 353 353 352 350 348 346 345 343 344 346 341 343 343 342 341 340 341 338 339 341 338 341 343 345 340 340 339 343 342 341 336
319 321 323 322 321 321 322 322 322 322 322 323 323 323 323 333 342 345 348 353 353 352 350 347 347 345 347 346 344 346 346 345 344 344 342 339 340 344 343 341 342 345 343 343 343 341 341 343 341
322 321 323 322 321 321 321 321 321 321 322 322 322 322 322 326 335 342 347 351 355 353 352 349 349 346 347 352 347 346 347 346 348 347 347 344 347 348 346 345 345 344 343 342 343 343 341 340 340
321 322 323 323 322 321 321 320 320 320 321 322 322 322 321 322 323 339 343 353 355 356 353 351 352 349 349 352 351 347 347 349 348 350 351 350 350 351 349 349 350 348 347 345 344 342 341 339 338
321 322 323 323 323 322 320 320 320 320 321 321 321 321 321 322 321 323 343 350 358 357 358 353 354 351 351 351 353 353 353 349 350 349 351 352 352 351 352 350 349 349 347 347 346 344 342 341 340
322 324 323 322 322 322 320 319 321 321 321 322 322 321 321 322 323 323 326 348 359 358 348 355 356 354 355 353 356 352 351 354 353 351 352 352 353 352 350 352 350 349 349 347 346 346 346 346 345
322 323 324 323 323 322 322 321 320 321 321 322 322 322 322 323 323 324 325 331 360 356 355 355 361 358 357 356 354 352 352 352 351 351 352 353 351 352 350 352 349 349 349 348 347 346 346 346 346
321 321 321 322 322 323 323 322 320 322 321 322 322 323 322 323 323 323 325 344 360 359 360 359 358 358 356 357 356 355 352 352 353 352 351 350 352 351 350 348 349 348 346 346 348 348 347 347 346
321 321 322 322 322 323 324 322 322 322 322 323 323 323 324 324 323 325 330 347 361 360 358 358 357 356 359 357 357 355 355 353 352 350 351 351 349 350 351 348 346 347 349 349 345 344 345 346 346
323 322 323 324 323 322 323 322 323 322 323 322 324 324 325 324 324 326 338 348 360 355 354 354 356 356 356 358 356 353 353 350 349 348 349 348 348 349 348 349 347 346 345 346 347 346 344 345 343
323 322 322 324 325 325 323 323 325 324 323 323 324 324 325 324 326 329 339 346 360 358 355 354 355 356 354 355 355 353 353 350 349 348 346 349 349 348 346 345 344 343 342 344 341 342 341 340 340
321 321 322 323 325 326 324 323 326 325 325 324 324 324 325 325 325 327 341 347 354 356 356 354 354 353 353 354 354 351 350 349 347 347 348 345 343 341 340 341 340 338 339 337 335 336 335 335 335
319 321 322 323 326 329 325 323 324 326 326 326 325 324 325 325 325 330 338 347 354 356 355 354 352 353 353 350 352 350 348 347 347 348 347 343 339 336 334 333 332 330 329 329 328 328 331 329 331
315 321 326 326 329 332 326 324 326 327 326 326 325 324 325 325 325 332 338 343 356 354 353 352 352 351 350 349 350 350 348 347 347 344 344 341 334 331 328 327 326 324 322 322 319 317 323 321 322
315 320 329 327 333 331 328 327 327 326 328 326 325 324 325 325 325 328 339 343 349 348 348 348 348 347 347 348 347 347 346 343 336 336 333 331 328 326 324 323 322 320 320 320 319 319 319 320 319
315 318 324 325 325 325 327 327 330 330 328 326 325 325 325 326 328 330 338 341 346 345 347 345 342 341 342 341 337 334 334 332 329 328 326 324 324 321 321 320 320 319 319 319 319 319 319 318 318
318 319 325 328 327 327 325 330 333 335 333 328 328 332 334 338 341 341 343 341 340 339 339 338 337 335 335 334 332 330 328 326 325 323 322 321 320 320 319 318 318 317 317 317 317 318 317 318 317
319 321 324 326 326 329 328 330 335 337 336 338 339 337 336 336 337 341 340 339 337 336 336 335 334 332 330 328 326 325 324 323 322 321 320 320 318 317 317 316 316 316 316 317 317 317 318 317 317
320 321 325 330 330 326 331 337 333 338 338 337 336 338 338 339 339 338 337 336 334 333 332 330 329 327 326 324 323 322 322 321 320 319 318 317 316 316 316 316 317 317 317 317 318 316 316 317 317
Wind_Speed
13 11 10 11 7 8 18 20 22 24 16 6 10 7 13 19 11 10 19 15 34 28 26 25 22 22 22 22 21 20 18 18 18 17 17 18 18 18 17 16 15 12 10 9 8 6 5 5 4
12 13 18 6 9 14 16 21 25 22 5 14 8 2 9 20 15 16 13 25 26 27 27 24 23 22 23 22 21 20 18 18 18 17 17 18 18 17 15 14 12 11 10 8 7 6 6 5 5
13 17 8 6 15 18 18 23 20 22 14 10 3 3 5 11 10 8 23 27 27 26 24 24 23 21 22 22 21 21 19 18 18 17 16 18 17 16 13 12 10 9 8 7 7 7 7 6 6
8 9 6 14 21 25 27 24 27 20 15 9 7 2 10 8 7 13 20 26 24 24 22 25 23 21 20 22 22 21 19 19 19 17 16 17 17 16 13 9 7 7 7 7 7 7 7 6 7
20 9 11 17 25 26 23 28 29 21 12 13 7 11 14 12 16 18 21 24 24 24 21 25 23 20 19 21 22 22 20 19 18 17 16 16 17 16 12 10 8 7 7 7 7 7 7 7 6
9 12 15 19 23 25 25 25 27 25 16 16 13 13 11 15 19 20 22 22 24 27 21 25 22 19 18 19 21 20 19 19 18 16 15 16 16 16 13 10 8 8 7 7 6 6 7 7 6
18 15 20 24 22 24 24 24 24 21 14 11 9 8 13 16 20 22 22 21 26 28 25 23 20 18 17 18 21 20 19 19 17 15 14 14 16 16 13 11 9 9 8 8 8 8 8 9 9
15 15 26 24 21 26 22 23 23 24 23 8 11 7 6 18 21 22 23 23 26 26 22 21 20 19 19 19 20 19 19 18 17 15 14 15 16 16 14 11 10 9 9 9 9 10 11 11 12
23 17 20 29 26 20 22 22 7 4 2 7 13 10 16 17 17 21 24 25 26 26 25 23 21 20 19 18 20 19 18 17 15 14 13 14 13 15 12 11 9 8 8 9 9 10 11 12 15
23 18 32 24 23 23 20 22 15 9 8 13 16 9 20 13 12 14 18 21 27 28 26 26 25 24 23 19 19 17 16 15 15 12 14 13 14 11 11 10 11 11 10 11 12 12 12 14 16
27 29 23 27 26 24 21 21 15 12 15 16 19 14 14 14 11 12 20 23 27 28 28 29 29 25 25 23 21 18 16 15 14 13 12 15 13 16 13 16 13 14 15 16 14 15 17 18 15
28 32 29 26 22 23 20 17 15 13 15 14 19 19 19 15 13 12 17 23 26 28 29 33 31 28 26 28 23 21 20 20 17 17 15 16 15 15 12 15 14 13 13 16 16 19 20 17 15
33 31 29 28 27 25 22 19 15 13 16 13 8 19 16 17 16 16 13 20 27 29 31 35 35 30 26 30 24 24 23 23 21 21 19 16 14 13 12 13 12 14 11 16 16 17 18 19 18
29 29 29 25 28 25 24 14 15 18 15 16 13 9 11 11 16 16 14 16 14 38 39 40 38 33 25 21 26 23 23 23 22 23 23 18 17 14 14 12 10 11 11 11 11 9 12 13 14
28 29 28 28 27 24 22 20 24 20 18 15 18 12 9 10 13 15 21 16 20 10 36 40 42 37 25 17 20 19 20 16 18 20 24 18 18 13 11 12 11 9 13 9 12 14 16 17 17
29 30 24 29 29 26 17 27 22 20 18 19 16 14 13 14 16 19 21 22 15 23 22 39 37 38 30 23 15 16 10 14 12 12 18 17 14 16 11 14 8 6 4 6 8 12 15 17 19
28 24 35 28 28 24 26 20 20 23 19 17 16 15 17 19 17 21 22 23 20 12 16 23 32 34 29 25 16 19 14 12 5 11 14 13 13 13 14 8 9 6 4 9 12 13 14 16 18
33 33 30 28 27 25 28 25 20 20 25 21 18 19 17 17 17 17 25 25 25 25 24 34 28 31 27 25 22 19 17 14 12 11 9 9 12 12 11 8 8 8 6 10 14 16 18 19 19
26 25 28 25 26 23 25 24 23 17 20 21 20 17 18 16 14 19 18 21 30 29 34 28 27 29 29 25 21 18 18 16 12 10 11 11 10 8 8 7 6 7 9 12 12 13 16 19 18
30 29 25 25 26 27 24 24 22 23 17 19 20 19 18 16 16 15 19 18 31 21 20 20 19 22 23 21 22 20 18 17 14 9 12 12 9 7 6 5 6 5 7 8 11 11 13 14 14
30 28 25 24 27 24 20 19 22 23 22 16 18 19 20 18 17 15 15 16 22 29 23 11 21 23 20 18 20 14 16 14 13 13 12 8 7 6 2 2 5 7 5 7 6 8 8 11 14
28 29 26 26 18 17 23 15 19 21 22 17 16 17 17 18 16 15 17 14 23 24 33 34 25 21 21 20 19 21 18 17 16 14 12 10 8 7 3 2 1 2 2 5 6 7 9 11 12
27 29 28 28 17 21 21 14 18 21 21 22 17 14 18 17 14 14 17 18 22 21 25 27 22 22 19 21 19 18 14 15 17 16 17 15 14 10 6 5 5 3 4 6 8 8 9 9 11
25 27 30 25 18 15 19 16 19 22 27 21 19 18 16 19 19 17 17 18 18 23 24 21 20 21 19 16 13 13 15 20 23 19 17 15 14 10 9 8 7 5 6 6 7 7 9 10 10
30 22 16 15 13 10 22 20 13 23 22 22 20 18 16 17 19 17 19 16 26 23 22 23 22 16 16 13 14 13 15 17 21 17 15 18 17 10 8 7 5 4 5 6 9 9 9 10 11
31 23 8 22 12 18 21 20 20 12 19 23 21 17 15 16 15 15 18 13 26 25 21 22 19 21 20 20 19 20 20 18 18 19 19 17 15 8 6 6 6 6 7 8 9 9 9 9 13
30 23 23 15 18 15 18 16 13 5 17 22 22 18 17 14 18 14 16 17 24 28 25 25 27 25 22 22 23 24 24 23 21 19 16 15 12 10 7 6 5 7 8 8 10 11 11 11 12
23 23 21 14 21 16 21 18 12 14 12 20 20 17 15 18 20 17 17 24 28 34 32 27 26 24 23 23 21 23 24 20 17 17 16 13 10 8 6 6 6 7 7 7 11 11 12 13 13
15 14 17 18 14 12 10 17 18 20 17 18 18 15 14 17 18 19 19 26 28 30 23 25 24 23 22 22 22 22 20 18 17 16 12 10 8 6 7 6 7 8 8 10 11 11 11 13 13
18 18 23 11 20 4 5 8 22 25 22 19 16 15 17 17 20 19 18 25 27 24 22 21 22 22 21 21 21 20 19 16 15 12 10 7 7 7 7 8 8 8 9 10 11 17 19 20 19
Wind_Direction
254 247 246 261 243 229 250 250 244 270 277 96 57 359 2 52 23 98 126 132 126 142 156 158 159 158 160 162 162 162 157 155 155 153 151 147 146 144 142 141 141 140 141 142 144 140 135 142 133
245 237 227 266 235 239 246 239 254 253 60 65 73 326 276 76 75 113 125 126 130 143 156 161 161 161 163 165 165 164 162 161 159 158 155 153 151 148 144 144 144 143 145 147 151 151 148 147 138
245 253 228 225 237 240 246 250 224 253 112 114 156 41 18 72 98 82 125 127 132 147 149 165 162 164 167 169 170 168 166 164 163 162 160 158 156 152 149 147 143 143 143 143 141 137 139 145 139
223 231 239 247 236 229 246 259 268 315 135 146 187 142 87 88 90 106 140 135 139 148 152 164 163 166 170 174 173 171 171 168 166 164 163 164 164 161 156 150 142 140 138 134 131 136 140 145 144
232 242 221 231 240 248 234 241 263 270 269 152 212 220 119 110 118 126 144 140 148 150 156 161 164 167 170 173 176 173 173 171 169 167 167 169 172 171 169 165 158 152 147 146 143 144 150 153 162
220 231 238 232 237 235 245 253 243 253 231 242 210 213 120 134 128 140 152 146 150 146 146 161 165 167 168 171 174 174 175 174 173 172 172 173 176 177 177 173 168 167 168 169 169 175 178 190 207
236 221 235 246 246 235 236 233 258 259 227 211 199 202 142 152 135 144 153 152 144 133 142 153 156 162 164 168 173 177 178 177 177 176 177 179 180 181 181 181 181 182 186 193 195 199 205 213 223
226 247 246 239 246 251 254 229 223 245 247 204 211 186 164 122 142 145 155 159 145 138 147 153 156 156 160 167 177 179 181 183 184 184 185 185 185 185 188 189 196 197 200 208 214 219 224 231 239
228 239 241 241 239 243 261 266 191 27 259 267 272 245 106 120 144 153 157 165 151 146 150 160 159 160 158 163 175 180 184 186 188 186 188 187 183 191 199 199 222 218 220 225 232 237 243 247 251
223 227 237 241 249 253 249 261 242 172 211 243 253 230 120 137 158 163 164 169 156 154 156 163 163 164 164 162 175 173 179 185 184 187 191 183 182 203 202 211 224 239 243 243 245 247 252 254 256
229 234 232 242 254 256 255 243 245 188 209 221 229 206 147 153 177 185 182 178 165 160 159 160 165 166 169 161 163 165 173 176 177 183 201 173 197 200 201 211 228 240 247 250 257 257 255 255 261
227 234 238 249 237 250 263 278 247 205 224 208 227 203 170 169 184 197 197 186 170 165 161 159 163 168 178 159 162 172 171 176 179 185 200 185 215 199 200 214 224 230 226 247 237 255 262 258 249
231 231 230 237 257 270 277 246 251 214 221 233 238 209 209 167 186 201 222 202 176 166 161 161 162 169 187 160 165 179 180 180 183 183 198 189 203 199 199 229 241 224 226 241 237 237 255 248 255
232 236 237 228 232 242 253 233 246 255 243 205 232 234 193 175 188 188 209 239 199 169 168 163 160 169 191 169 167 186 183 183 184 183 195 191 207 212 206 214 242 269 286 289 289 314 330 315 297
240 244 231 234 233 243 230 238 227 231 233 204 218 203 222 225 231 188 192 216 235 213 157 159 155 164 180 186 169 182 188 180 185 191 193 190 203 221 214 228 226 240 259 264 285 299 301 297 292
233 239 238 222 227 230 223 239 222 223 228 224 207 194 212 230 230 219 183 199 231 181 165 155 144 157 170 191 184 185 162 191 199 196 173 181 200 222 223 239 253 259 290 306 317 320 307 295 286
237 222 228 223 215 217 216 231 232 208 221 216 194 205 220 221 225 222 203 187 189 194 130 129 149 159 162 181 185 189 190 198 183 187 166 193 205 224 230 232 257 311 296 302 297 287 294 298 302
215 216 220 223 216 207 223 232 231 232 204 210 208 207 226 212 209 221 193 197 179 164 160 177 153 152 157 175 183 200 206 209 220 198 185 190 192 212 223 232 257 290 290 291 297 300 297 293 301
218 221 222 222 221 223 214 225 216 227 214 199 205 213 212 217 206 208 201 178 176 181 169 170 159 156 167 173 172 186 197 204 203 189 210 194 179 204 213 228 266 276 291 291 303 309 306 303 305
234 221 219 219 217 215 217 216 219 224 237 203 196 201 206 207 207 197 187 168 174 148 151 157 169 170 164 168 181 182 186 194 197 194 147 160 178 192 192 234 273 299 305 311 307 305 304 301 312
228 233 226 218 220 202 210 208 222 223 218 216 198 193 199 198 203 192 165 157 166 148 166 183 193 174 174 175 182 180 182 175 174 178 170 161 172 181 190 258 284 285 309 323 348 335 334 336 320
220 226 235 241 204 212 189 209 206 222 207 199 190 191 185 191 200 185 157 165 160 156 159 176 175 169 175 185 174 172 161 166 173 164 158 138 141 111 124 140 204 285 308 327 332 318 332 322 318
221 213 227 237 240 221 191 215 206 213 207 186 185 194 184 181 181 194 153 166 173 165 154 166 169 175 178 174 163 171 168 157 144 141 135 131 120 106 99 83 86 70 55 14 8 344 334 325 319
234 212 217 230 241 214 191 195 232 189 210 186 184 184 188 175 182 177 154 157 143 132 144 150 160 165 167 165 165 159 153 145 139 138 142 138 119 109 97 96 77 43 57 18 347 330 339 332 330
230 233 197 205 223 185 212 192 231 204 195 188 184 177 192 171 177 164 160 157 137 137 147 152 158 159 153 145 151 147 145 148 141 145 150 134 121 109 91 77 85 56 33 357 343 346 352 337 334
214 222 210 193 171 206 219 222 223 267 209 182 171 176 176 162 161 138 133 122 125 137 133 133 125 106 117 113 110 114 109 112 97 107 102 102 105 102 91 73 53 40 25 7 351 2 328 338 339
211 215 201 217 191 205 186 194 86 70 160 167 154 175 167 157 121 121 122 133 109 101 105 108 104 107 106 108 99 96 104 97 93 89 97 97 106 108 88 66 44 28 12 1 349 351 344 337 328
234 194 200 231 188 213 191 151 147 135 103 137 132 111 99 92 98 98 98 84 86 92 100 105 107 105 100 96 93 89 92 98 100 103 98 93 86 79 70 47 25 17 1 353 354 344 330 337 347
208 228 204 220 225 209 181 170 154 141 126 100 97 100 113 117 123 101 96 97 95 96 109 112 113 111 106 103 104 103 102 99 96 92 91 89 82 67 50 28 15 7 358 359 345 334 346 341 337
202 221 203 202 224 312 355 150 152 137 139 137 131 115 105 103 105 112 114 113 108 118 116 116 115 110 109 109 106 102 100 98 94 91 83 75 63 53 41 24 14 6 5 350 4 16 0 353 350